DLH2281 LFKB-EDDM

Flight info

Callsign DLH2281
Flight time 0h 58m
Altitude 36000
Route MOULE2R MOULE L146 ELB DCT BETMU DCT BORMI DCT NAXAV DCT BEXOR DCT SOTOV T101 BETOS BETOS1A
Aircraft A321/M-SDE3FGHIRWY/LB1

Departure

Time 2026-05-06 12:50
Airport Bastia-Poretta International airport (LFKB)

Arrival

Time 2026-05-06 13:48
Airport Munich Airport (EDDM)
Time Latitude Longitude Altitude Speed Heading
2026-05-06 12:31 42.54782 9.48192 36 ft 0 kts 253°
2026-05-06 12:42 42.54784 9.48202 35 ft 4 kts 253°
2026-05-06 12:42 42.54791 9.48235 33 ft 2 kts 253°
2026-05-06 12:43 42.54799 9.48264 33 ft 4 kts 235°
2026-05-06 12:43 42.54816 9.48283 31 ft 4 kts 174°
2026-05-06 12:43 42.54840 9.48274 34 ft 3 kts 163°
2026-05-06 12:43 42.54843 9.48273 34 ft 0 kts 163°
2026-05-06 12:46 42.54833 9.48277 35 ft 4 kts 163°
2026-05-06 12:46 42.54781 9.48299 34 ft 11 kts 163°
2026-05-06 12:46 42.54698 9.48334 35 ft 13 kts 163°
2026-05-06 12:46 42.54609 9.48371 35 ft 14 kts 163°
2026-05-06 12:47 42.54514 9.48411 35 ft 15 kts 163°
2026-05-06 12:47 42.54411 9.48419 35 ft 15 kts 175°
2026-05-06 12:47 42.54306 9.48455 35 ft 16 kts 163°
2026-05-06 12:47 42.54194 9.48504 35 ft 17 kts 156°
2026-05-06 12:48 42.54129 9.48635 35 ft 17 kts 96°
2026-05-06 12:48 42.54155 9.48749 35 ft 13 kts 57°
2026-05-06 12:48 42.54235 9.48798 35 ft 14 kts 359°
2026-05-06 12:48 42.54267 9.48790 35 ft 0 kts 345°
2026-05-06 12:49 42.54304 9.48776 35 ft 29 kts 345°
2026-05-06 12:49 42.54745 9.48597 33 ft 101 kts 343°
2026-05-06 12:49 42.55609 9.48242 39 ft 156 kts 344°
2026-05-06 12:50 42.56678 9.47820 633 ft 160 kts 348°
2026-05-06 12:50 42.57787 9.47988 1161 ft 171 kts 33°
2026-05-06 12:50 42.58482 9.49356 1419 ft 191 kts 76°
2026-05-06 12:50 42.58769 9.51156 1738 ft 206 kts 80°
2026-05-06 12:51 42.59014 9.53162 1964 ft 228 kts 82°
2026-05-06 12:51 42.59283 9.55414 2170 ft 253 kts 81°
2026-05-06 12:51 42.59586 9.57807 2913 ft 261 kts 81°
2026-05-06 12:51 42.59921 9.60269 3660 ft 269 kts 80°
2026-05-06 12:52 42.60285 9.62789 4403 ft 275 kts 80°
2026-05-06 12:52 42.60664 9.65351 5111 ft 279 kts 79°
2026-05-06 12:52 42.61056 9.67950 5792 ft 284 kts 79°
2026-05-06 12:52 42.61460 9.70593 6448 ft 288 kts 79°
2026-05-06 12:53 42.61874 9.73277 7085 ft 293 kts 80°
2026-05-06 12:53 42.62293 9.76002 7722 ft 297 kts 79°
2026-05-06 12:53 42.62745 9.78761 8361 ft 301 kts 79°
2026-05-06 12:53 42.63224 9.81551 9025 ft 306 kts 78°
2026-05-06 12:54 42.63719 9.84380 9640 ft 310 kts 79°
2026-05-06 12:54 42.64220 9.87255 10159 ft 319 kts 79°
2026-05-06 12:54 42.64745 9.90284 10287 ft 341 kts 79°
2026-05-06 12:54 42.65301 9.93511 10450 ft 359 kts 79°
2026-05-06 12:55 42.65876 9.96855 10877 ft 367 kts 79°
2026-05-06 12:55 42.66458 10.00251 11424 ft 372 kts 79°
2026-05-06 12:55 42.67045 10.03693 11974 ft 376 kts 79°
2026-05-06 12:55 42.67636 10.07168 12540 ft 380 kts 79°
2026-05-06 12:56 42.68233 10.10684 13083 ft 384 kts 79°
2026-05-06 12:56 42.68832 10.14235 13641 ft 388 kts 80°
2026-05-06 12:56 42.69436 10.17827 14120 ft 392 kts 80°
2026-05-06 12:56 42.70042 10.21452 14609 ft 395 kts 80°
2026-05-06 12:57 42.70652 10.25106 15104 ft 398 kts 79°
2026-05-06 12:57 42.71260 10.28746 15618 ft 401 kts 79°
2026-05-06 12:57 42.72158 10.32359 16109 ft 407 kts 65°
2026-05-06 12:57 42.73681 10.35611 16581 ft 410 kts 50°
2026-05-06 12:58 42.75748 10.38289 17096 ft 411 kts 34°
2026-05-06 12:58 42.78233 10.40216 17531 ft 412 kts 19°
2026-05-06 12:58 42.80981 10.41262 17986 ft 410 kts
2026-05-06 12:58 42.83805 10.41860 18432 ft 413 kts
2026-05-06 12:59 42.86651 10.42463 18848 ft 415 kts
2026-05-06 12:59 42.89521 10.43073 19261 ft 418 kts
2026-05-06 12:59 42.92407 10.43691 19655 ft 421 kts
2026-05-06 12:59 42.95312 10.44315 20046 ft 424 kts
2026-05-06 13:00 42.98240 10.44942 20439 ft 427 kts
2026-05-06 13:00 43.01186 10.45573 20814 ft 430 kts
2026-05-06 13:00 43.04153 10.46210 21194 ft 433 kts
2026-05-06 13:00 43.07143 10.46853 21570 ft 436 kts
2026-05-06 13:01 43.10152 10.47497 21938 ft 439 kts
2026-05-06 13:01 43.13175 10.48144 22299 ft 442 kts
2026-05-06 13:01 43.16223 10.48796 22673 ft 445 kts
2026-05-06 13:01 43.19289 10.49456 23020 ft 448 kts
2026-05-06 13:02 43.22376 10.50124 23389 ft 451 kts
2026-05-06 13:02 43.25481 10.50797 23707 ft 453 kts
2026-05-06 13:02 43.28611 10.51476 24008 ft 456 kts
2026-05-06 13:02 43.31749 10.52156 24311 ft 458 kts
2026-05-06 13:03 43.34911 10.52841 24637 ft 461 kts
2026-05-06 13:03 43.38081 10.53529 24979 ft 462 kts
2026-05-06 13:03 43.41268 10.54224 25298 ft 464 kts
2026-05-06 13:03 43.44468 10.54923 25601 ft 467 kts
2026-05-06 13:04 43.47681 10.55624 25898 ft 469 kts
2026-05-06 13:04 43.50911 10.56326 26187 ft 471 kts
2026-05-06 13:04 43.54160 10.57031 26499 ft 474 kts
2026-05-06 13:04 43.57416 10.57741 26796 ft 475 kts
2026-05-06 13:05 43.60692 10.58454 27069 ft 477 kts
2026-05-06 13:05 43.63982 10.59174 27346 ft 480 kts
2026-05-06 13:05 43.67286 10.59902 27622 ft 482 kts
2026-05-06 13:05 43.70604 10.60635 27898 ft 484 kts
2026-05-06 13:06 43.73934 10.61369 28196 ft 486 kts
2026-05-06 13:06 43.77272 10.62105 28522 ft 486 kts
2026-05-06 13:06 43.80622 10.62842 28816 ft 488 kts
2026-05-06 13:06 43.83980 10.63578 29092 ft 490 kts
2026-05-06 13:07 43.87351 10.64321 29363 ft 492 kts
2026-05-06 13:07 43.90734 10.65066 29616 ft 493 kts
2026-05-06 13:07 43.94131 10.65814 29899 ft 495 kts
2026-05-06 13:07 43.97539 10.66569 30128 ft 496 kts
2026-05-06 13:08 44.00947 10.67330 30354 ft 497 kts
2026-05-06 13:08 44.04368 10.68094 30532 ft 498 kts
2026-05-06 13:08 44.07800 10.68857 30761 ft 499 kts
2026-05-06 13:08 44.11221 10.69617 31067 ft 498 kts
2026-05-06 13:09 44.14642 10.70377 31296 ft 499 kts
2026-05-06 13:09 44.18075 10.71140 31478 ft 499 kts
2026-05-06 13:09 44.21503 10.71904 31679 ft 499 kts
2026-05-06 13:09 44.24937 10.72668 31911 ft 499 kts
2026-05-06 13:10 44.28359 10.73433 32170 ft 498 kts
2026-05-06 13:10 44.31738 10.74194 32437 ft 498 kts
2026-05-06 13:10 44.35196 10.74973 32678 ft 497 kts
2026-05-06 13:10 44.38563 10.75732 32934 ft 496 kts
2026-05-06 13:11 44.41970 10.76499 33190 ft 496 kts
2026-05-06 13:11 44.45378 10.77270 33422 ft 496 kts
2026-05-06 13:11 44.48780 10.78041 33687 ft 495 kts
2026-05-06 13:11 44.52191 10.78811 33841 ft 498 kts
2026-05-06 13:12 44.55615 10.79583 33990 ft 499 kts
2026-05-06 13:12 44.59044 10.80360 34169 ft 499 kts
2026-05-06 13:12 44.62465 10.81138 34368 ft 498 kts
2026-05-06 13:12 44.65886 10.81916 34565 ft 498 kts
2026-05-06 13:13 44.69303 10.82694 34776 ft 498 kts
2026-05-06 13:13 44.72721 10.83508 34967 ft 497 kts
2026-05-06 13:13 44.76126 10.84352 35157 ft 497 kts
2026-05-06 13:13 44.79523 10.85213 35372 ft 496 kts
2026-05-06 13:14 44.82923 10.86078 35578 ft 496 kts
2026-05-06 13:14 44.86315 10.86936 35781 ft 495 kts
2026-05-06 13:14 44.89707 10.87786 35882 ft 494 kts
2026-05-06 13:15 44.96455 10.89459 35887 ft 492 kts
2026-05-06 13:15 45.03189 10.91124 35891 ft 491 kts
2026-05-06 13:16 45.09926 10.92801 35891 ft 492 kts
2026-05-06 13:16 45.16667 10.94498 35894 ft 492 kts
2026-05-06 13:17 45.23413 10.96199 35903 ft 493 kts
2026-05-06 13:17 45.30175 10.97901 35911 ft 494 kts
2026-05-06 13:18 45.36949 10.99610 35906 ft 494 kts
2026-05-06 13:18 45.43719 11.01322 35894 ft 494 kts
2026-05-06 13:19 45.50496 11.03045 35908 ft 495 kts
2026-05-06 13:19 45.57288 11.04767 35909 ft 496 kts
2026-05-06 13:20 45.64039 11.06483 35921 ft 496 kts
2026-05-06 13:20 45.70835 11.08221 35926 ft 496 kts
2026-05-06 13:21 45.77634 11.09969 35925 ft 496 kts
2026-05-06 13:21 45.84442 11.11719 35923 ft 497 kts
2026-05-06 13:22 45.90136 11.13185 35918 ft 496 kts
2026-05-06 13:22 45.96934 11.14941 35925 ft 497 kts
2026-05-06 13:23 46.03734 11.16708 35946 ft 497 kts
2026-05-06 13:23 46.10451 11.18871 35959 ft 499 kts 10°
2026-05-06 13:24 46.17159 11.21453 35975 ft 499 kts 11°
2026-05-06 13:24 46.23860 11.24029 35984 ft 499 kts 11°
2026-05-06 13:25 46.30595 11.26497 35911 ft 499 kts 10°
2026-05-06 13:25 46.37335 11.28918 35903 ft 500 kts 10°
2026-05-06 13:26 46.44107 11.31187 35881 ft 496 kts
2026-05-06 13:26 46.50890 11.31209 35879 ft 483 kts 345°
2026-05-06 13:27 46.57511 11.29642 35874 ft 482 kts 344°
2026-05-06 13:27 46.64149 11.28096 35887 ft 483 kts 345°
2026-05-06 13:28 46.70795 11.26567 35892 ft 483 kts 345°
2026-05-06 13:28 46.77431 11.25031 35892 ft 483 kts 345°
2026-05-06 13:29 46.84064 11.23470 35896 ft 483 kts 345°
2026-05-06 13:29 46.90687 11.21904 35883 ft 482 kts 345°
2026-05-06 13:30 46.97373 11.21240 35863 ft 492 kts 358°
2026-05-06 13:30 47.00794 11.21489 35260 ft 494 kts 357°
2026-05-06 13:30 47.04246 11.21728 34352 ft 500 kts 357°
2026-05-06 13:30 47.07729 11.21955 33475 ft 504 kts 356°
2026-05-06 13:31 47.11236 11.22181 32747 ft 503 kts 356°
2026-05-06 13:31 47.14728 11.22410 32162 ft 500 kts 356°
2026-05-06 13:31 47.18182 11.22642 31634 ft 495 kts 356°
2026-05-06 13:31 47.21610 11.22879 31147 ft 491 kts 356°
2026-05-06 13:32 47.25011 11.23119 30668 ft 486 kts 356°
2026-05-06 13:32 47.28372 11.23353 30132 ft 482 kts 357°
2026-05-06 13:32 47.31636 11.23575 29575 ft 478 kts 357°
2026-05-06 13:32 47.34948 11.23798 28989 ft 474 kts 357°
2026-05-06 13:33 47.38228 11.24020 28420 ft 470 kts 357°
2026-05-06 13:33 47.41478 11.24240 27819 ft 465 kts 357°
2026-05-06 13:33 47.44691 11.24459 27044 ft 458 kts 357°
2026-05-06 13:33 47.47854 11.24678 26262 ft 452 kts 358°
2026-05-06 13:34 47.50971 11.24894 25499 ft 445 kts 358°
2026-05-06 13:34 47.54042 11.25105 24801 ft 439 kts 358°
2026-05-06 13:34 47.57076 11.25259 24093 ft 433 kts 356°
2026-05-06 13:34 47.60062 11.25292 23428 ft 427 kts 355°
2026-05-06 13:35 47.63013 11.25255 22649 ft 421 kts 355°
2026-05-06 13:35 47.65922 11.25191 21828 ft 416 kts 355°
2026-05-06 13:35 47.68802 11.25129 21045 ft 412 kts 355°
2026-05-06 13:35 47.71650 11.25093 20285 ft 408 kts 358°
2026-05-06 13:36 47.74454 11.25639 19552 ft 406 kts 13°
2026-05-06 13:36 47.77107 11.26999 18806 ft 402 kts 20°
2026-05-06 13:36 47.79706 11.28459 18089 ft 397 kts 19°
2026-05-06 13:36 47.82276 11.29899 17303 ft 392 kts 19°
2026-05-06 13:37 47.84810 11.31314 16556 ft 387 kts 19°
2026-05-06 13:37 47.87318 11.32697 15812 ft 381 kts 17°
2026-05-06 13:37 47.89872 11.33546 15098 ft 373 kts
2026-05-06 13:37 47.92439 11.33787 14379 ft 367 kts
2026-05-06 13:38 47.94976 11.33999 13693 ft 363 kts 360°
2026-05-06 13:38 47.97480 11.34209 12951 ft 358 kts
2026-05-06 13:38 47.99944 11.34418 12151 ft 350 kts
2026-05-06 13:38 48.02354 11.34625 11378 ft 339 kts
2026-05-06 13:39 48.04634 11.34826 10909 ft 321 kts
2026-05-06 13:39 48.06833 11.34955 10207 ft 312 kts 355°
2026-05-06 13:39 48.08963 11.34603 9465 ft 306 kts 351°
2026-05-06 13:39 48.11078 11.34183 9056 ft 304 kts 351°
2026-05-06 13:40 48.13167 11.33773 8648 ft 302 kts 352°
2026-05-06 13:40 48.15238 11.33370 8200 ft 301 kts 352°
2026-05-06 13:40 48.17299 11.32971 7889 ft 296 kts 352°
2026-05-06 13:40 48.19332 11.32575 7483 ft 295 kts 352°
2026-05-06 13:41 48.21369 11.32176 7076 ft 293 kts 352°
2026-05-06 13:41 48.23384 11.31884 6720 ft 290 kts
2026-05-06 13:41 48.25346 11.32463 6336 ft 287 kts 23°
2026-05-06 13:41 48.27038 11.33980 5957 ft 282 kts 43°
2026-05-06 13:42 48.28282 11.36204 5575 ft 277 kts 62°
2026-05-06 13:42 48.29232 11.38695 5266 ft 271 kts 62°
2026-05-06 13:42 48.30153 11.41100 5116 ft 260 kts 61°
2026-05-06 13:42 48.31039 11.43403 4989 ft 250 kts 61°
2026-05-06 13:43 48.31729 11.45696 4983 ft 233 kts 79°
2026-05-06 13:43 48.31932 11.48022 4947 ft 221 kts 84°
2026-05-06 13:43 48.32110 11.50290 4734 ft 214 kts 84°
2026-05-06 13:43 48.32283 11.52457 4469 ft 204 kts 84°
2026-05-06 13:44 48.32446 11.54511 4192 ft 191 kts 84°
2026-05-06 13:44 48.32597 11.56404 3965 ft 173 kts 83°
2026-05-06 13:44 48.32733 11.58119 3732 ft 158 kts 83°
2026-05-06 13:44 48.32859 11.59717 3532 ft 152 kts 82°
2026-05-06 13:45 48.32982 11.61273 3340 ft 149 kts 82°
2026-05-06 13:45 48.33222 11.64356 2950 ft 150 kts 82°
2026-05-06 13:45 48.33343 11.65888 2764 ft 149 kts 82°
2026-05-06 13:46 48.33467 11.67426 2555 ft 147 kts 84°
2026-05-06 13:46 48.33586 11.68945 2330 ft 146 kts 83°
2026-05-06 13:46 48.33702 11.70461 2130 ft 147 kts 82°
2026-05-06 13:46 48.33826 11.71982 1936 ft 146 kts 83°
2026-05-06 13:47 48.33942 11.73510 1761 ft 148 kts 81°
2026-05-06 13:47 48.34062 11.75035 1536 ft 146 kts 83°
2026-05-06 13:47 48.34173 11.76475 1488 ft 126 kts 83°
2026-05-06 13:47 48.34265 11.77645 1475 ft 98 kts 82°
2026-05-06 13:48 48.34338 11.78287 1479 ft 24 kts 46°
2026-05-06 13:48 48.34421 11.78439 1476 ft 20 kts 54°
2026-05-06 13:48 48.34502 11.78608 1480 ft 8 kts 53°
2026-05-06 13:48 48.34512 11.78629 1477 ft 3 kts 53°
2026-05-06 13:49 48.34531 11.78668 1478 ft 6 kts 53°
2026-05-06 13:49 48.34573 11.78753 1471 ft 16 kts 53°
2026-05-06 13:49 48.34635 11.78939 1484 ft 23 kts 80°
2026-05-06 13:49 48.34654 11.79180 1483 ft 23 kts 83°
2026-05-06 13:50 48.34673 11.79426 1485 ft 24 kts 83°
2026-05-06 13:50 48.34692 11.79666 1485 ft 20 kts 79°
2026-05-06 13:50 48.34793 11.79705 1480 ft 17 kts 353°
2026-05-06 13:50 48.34876 11.79690 1483 ft 9 kts 353°
2026-05-06 13:51 48.34905 11.79685 1482 ft 1 kts 353°
2026-05-06 13:51 48.34920 11.79682 1481 ft 4 kts 353°
2026-05-06 13:51 48.34958 11.79676 1476 ft 7 kts 353°
2026-05-06 13:51 48.35003 11.79669 1477 ft 8 kts 354°
2026-05-06 13:52 48.35066 11.79665 1480 ft 10 kts 12°
2026-05-06 13:52 48.35104 11.79744 1480 ft 11 kts 82°
2026-05-06 13:52 48.35110 11.79821 1485 ft 0 kts 83°
2026-05-06 13:54 48.35110 11.79824 1485 ft 2 kts 83°
2026-05-06 13:54 48.35115 11.79886 1479 ft 9 kts 83°
2026-05-06 13:55 48.35123 11.79984 1483 ft 10 kts 83°
2026-05-06 13:55 48.35131 11.80097 1480 ft 12 kts 83°
2026-05-06 13:55 48.35155 11.80212 1477 ft 12 kts 31°
2026-05-06 13:55 48.35240 11.80213 1483 ft 13 kts 354°
2026-05-06 13:56 48.35334 11.80197 1477 ft 14 kts 353°
2026-05-06 13:56 48.35435 11.80166 1478 ft 15 kts 349°
2026-05-06 13:56 48.35546 11.80146 1475 ft 17 kts 353°
2026-05-06 13:56 48.35663 11.80109 1485 ft 17 kts 336°
2026-05-06 13:57 48.35745 11.80075 1481 ft 11 kts 345°
2026-05-06 13:57 48.35753 11.80036 1485 ft 2 kts 258°
2026-05-06 13:57 48.35750 11.80005 1485 ft 4 kts 262°
2026-05-06 13:57 48.35746 11.79958 1473 ft 5 kts 263°
2026-05-06 13:58 48.35744 11.79937 1480 ft 0 kts 263°